| time (UTC) | temp F | wind direction | speed knots | gust knots | rain 1hr in | rain 24hr in | rain mn in | humidity % | barometer mb |
| 20260506200656 | 81 | 118 | 8.7 | 15.6 | 0.00 | 0.00 | 0.00 | 66 | 1012.3 |
| 20260506200524 | 81 | 111 | 8.7 | 15.6 | 0.00 | 0.00 | 0.00 | 66 | 1012.5 |
| 20260506195658 | 81 | 67 | 8.7 | 15.6 | 0.00 | 0.00 | 0.00 | 66 | 1012.4 |
| 20260506195200 | 81 | 138 | 7.0 | 15.6 | 0.00 | 0.00 | 0.00 | 66 | 1012.4 |
| 20260506194657 | 81 | 136 | 6.1 | 15.6 | 0.00 | 0.00 | 0.00 | 66 | 1012.4 |
| 20260506194526 | 81 | 81 | 7.8 | 16.5 | 0.00 | 0.00 | 0.00 | 66 | 1012.4 |
| 20260506194031 | 81 | 137 | 7.0 | 16.5 | 0.00 | 0.00 | 0.00 | 65 | 1012.5 |
| 20260506193155 | 82 | 111 | 7.0 | 16.5 | 0.00 | 0.00 | 0.00 | 65 | 1012.4 |
| 20260506192656 | 81 | 98 | 7.8 | 16.5 | 0.00 | 0.00 | 0.00 | 65 | 1012.4 |
| 20260506192156 | 82 | 125 | 5.2 | 14.8 | 0.00 | 0.00 | 0.00 | 65 | 1012.5 |
| 20260506191654 | 81 | 92 | 6.1 | 15.6 | 0.00 | 0.00 | 0.00 | 65 | 1012.6 |
| 20260506191154 | 81 | 106 | 7.0 | 15.6 | 0.00 | 0.00 | 0.00 | 66 | 1012.6 |
| 20260506190654 | 81 | 82 | 7.0 | 14.8 | 0.00 | 0.00 | 0.00 | 66 | 1012.7 |
| 20260506190314 | 82 | 99 | 6.1 | 14.8 | 0.00 | 0.00 | 0.00 | 64 | 1012.8 |
| 20260506185154 | 81 | 116 | 7.8 | 13.9 | 0.00 | 0.00 | 0.00 | 67 | 1012.9 |
| 20260506184654 | 80 | 98 | 9.6 | 15.6 | 0.00 | 0.00 | 0.00 | 67 | 1013.0 |
| 20260506184154 | 80 | 92 | 8.7 | 16.5 | 0.00 | 0.00 | 0.00 | 66 | 1013.2 |
| 20260506183650 | 81 | 71 | 7.8 | 16.5 | 0.00 | 0.00 | 0.00 | 66 | 1013.1 |
| 20260506183151 | 81 | 90 | 7.8 | 16.5 | 0.00 | 0.00 | 0.00 | 66 | 1013.2 |
| 20260506182650 | 81 | 65 | 8.7 | 16.5 | 0.00 | 0.00 | 0.00 | 65 | 1013.3 |
| 20260506182149 | 81 | 111 | 8.7 | 15.6 | 0.00 | 0.00 | 0.00 | 65 | 1013.3 |
| 20260506181651 | 82 | 88 | 7.0 | 14.8 | 0.00 | 0.00 | 0.00 | 64 | 1013.4 |
| 20260506181548 | 82 | 101 | 7.0 | 15.6 | 0.00 | 0.00 | 0.00 | 65 | 1013.4 |
| 20260506180650 | 82 | 105 | 7.0 | 15.6 | 0.00 | 0.00 | 0.00 | 62 | 1013.4 |
| 20260506180151 | 82 | 140 | 6.1 | 14.8 | 0.00 | 0.00 | 0.00 | 65 | 1013.4 |
| 20260506175650 | 82 | 107 | 7.0 | 14.8 | 0.00 | 0.00 | 0.00 | 64 | 1013.6 |
| 20260506175146 | 82 | 91 | 6.1 | 14.8 | 0.00 | 0.00 | 0.00 | 66 | 1013.7 |
| 20260506174646 | 82 | 135 | 6.1 | 14.8 | 0.00 | 0.00 | 0.00 | 64 | 1013.7 |
| 20260506174146 | 82 | 111 | 7.0 | 14.8 | 0.00 | 0.00 | 0.00 | 64 | 1013.8 |
| 20260506173651 | 82 | 157 | 7.0 | 14.8 | 0.00 | 0.00 | 0.00 | 63 | 1013.8 |
| 20260506173149 | 82 | 98 | 7.0 | 13.0 | 0.00 | 0.00 | 0.00 | 62 | 1014.0 |
| 20260506172650 | 82 | 145 | 7.0 | 12.2 | 0.00 | 0.00 | 0.00 | 63 | 1014.1 |
| 20260506172146 | 82 | 103 | 6.1 | 12.2 | 0.00 | 0.00 | 0.00 | 63 | 1014.3 |
| 20260506172000 | 82 | 112 | 5.2 | 12.2 | 0.00 | 0.00 | 0.00 | 62 | 1014.3 |
| 20260506171146 | 82 | 113 | 4.3 | 10.4 | 0.00 | 0.00 | 0.00 | 64 | 1014.3 |
| 20260506171017 | 82 | 115 | 5.2 | 12.2 | 0.00 | 0.00 | 0.00 | 64 | 1014.3 |
| 20260506170142 | 82 | 127 | 4.3 | 12.2 | 0.00 | 0.00 | 0.00 | 64 | 1014.4 |
| 20260506165643 | 81 | 100 | 4.3 | 12.2 | 0.00 | 0.00 | 0.00 | 65 | 1014.4 |
| 20260506165511 | 82 | 139 | 6.1 | 13.0 | 0.00 | 0.00 | 0.00 | 64 | 1014.4 |
| 20260506165010 | 82 | 118 | 5.2 | 13.0 | 0.00 | 0.00 | 0.00 | 62 | 1014.6 |
| 20260506164140 | 83 | 91 | 4.3 | 13.0 | 0.00 | 0.00 | 0.00 | 61 | 1014.6 |
| 20260506163638 | 83 | 130 | 3.5 | 13.0 | 0.00 | 0.00 | 0.00 | 60 | 1014.6 |
| 20260506163459 | 83 | 140 | 4.3 | 12.2 | 0.00 | 0.00 | 0.00 | 60 | 1014.5 |
| 20260506162635 | 83 | 154 | 5.2 | 11.3 | 0.00 | 0.00 | 0.00 | 53 | 1014.6 |
| 20260506162134 | 83 | 108 | 5.2 | 10.4 | 0.00 | 0.00 | 0.00 | 53 | 1014.6 |
| 20260506161632 | 83 | 188 | 4.3 | 10.4 | 0.00 | 0.00 | 0.00 | 54 | 1014.7 |
| 20260506161132 | 83 | 165 | 4.3 | 13.9 | 0.00 | 0.00 | 0.00 | 53 | 1014.8 |
| 20260506160629 | 83 | 98 | 4.3 | 13.9 | 0.00 | 0.00 | 0.00 | 53 | 1014.7 |
| 20260506160132 | 82 | 189 | 3.5 | 8.7 | 0.00 | 0.00 | 0.00 | 55 | 1015.1 |
| 20260506160001 | 82 | 121 | 3.5 | 12.2 | 0.00 | 0.00 | 0.00 | 56 | 1015.0 |
| 20260506155123 | 81 | 97 | 3.5 | 12.2 | 0.00 | 0.00 | 0.00 | 55 | 1015.0 |
| 20260506154619 | 81 | 229 | 3.5 | 12.2 | 0.00 | 0.00 | 0.00 | 56 | 1014.8 |
| 20260506154117 | 81 | 135 | 5.2 | 12.2 | 0.00 | 0.00 | 0.00 | 56 | 1014.9 |
| 20260506153617 | 80 | 122 | 4.3 | 8.7 | 0.00 | 0.00 | 0.00 | 58 | 1014.9 |
| 20260506153114 | 80 | 175 | 4.3 | 8.7 | 0.00 | 0.00 | 0.00 | 57 | 1015.0 |
| 20260506152616 | 80 | 200 | 5.2 | 10.4 | 0.00 | 0.00 | 0.00 | 59 | 1015.1 |
| 20260506152112 | 80 | 159 | 4.3 | 10.4 | 0.00 | 0.00 | 0.00 | 59 | 1015.2 |
| 20260506151615 | 80 | 105 | 3.5 | 9.6 | 0.00 | 0.00 | 0.00 | 58 | 1015.2 |
| 20260506151110 | 80 | 132 | 4.3 | 12.2 | 0.00 | 0.00 | 0.00 | 58 | 1015.3 |
| 20260506151100 | 80 | 146 | 4.3 | 12.2 | 0.00 | 0.00 | 0.00 | 59 | 1015.2 |
| 20260506150325 | 79 | 134 | 4.3 | 13.0 | 0.00 | 0.00 | 0.00 | 59 | 1015.0 |
| 20260506145656 | 79 | 136 | 5.2 | 13.0 | 0.00 | 0.00 | 0.00 | 59 | 1014.8 |
| 20260506145106 | 79 | 175 | 5.2 | 13.9 | 0.00 | 0.00 | 0.00 | 60 | 1014.8 |
| 20260506144602 | 78 | 173 | 5.2 | 13.9 | 0.00 | 0.00 | 0.00 | 60 | 1014.7 |
| 20260506144102 | 78 | 137 | 4.3 | 13.0 | 0.00 | 0.00 | 0.00 | 61 | 1014.7 |
| 20260506143612 | 78 | 197 | 4.3 | 12.2 | 0.00 | 0.00 | 0.00 | 61 | 1014.7 |
| 20260506143106 | 78 | 137 | 4.3 | 12.2 | 0.00 | 0.00 | 0.00 | 62 | 1014.8 |
| 20260506142606 | 78 | 175 | 4.3 | 13.0 | 0.00 | 0.00 | 0.00 | 62 | 1014.8 |
| 20260506142455 | 77 | 142 | 5.2 | 13.0 | 0.00 | 0.00 | 0.00 | 62 | 1014.6 |
| 20260506141601 | 77 | 135 | 5.2 | 13.0 | 0.00 | 0.00 | 0.00 | 62 | 1014.6 |
| 20260506141102 | 77 | 167 | 3.5 | 10.4 | 0.00 | 0.00 | 0.00 | 63 | 1014.6 |
| 20260506140553 | 77 | 138 | 2.6 | 9.6 | 0.00 | 0.00 | 0.00 | 65 | 1014.7 |
| 20260506140046 | 76 | 117 | 4.3 | 9.6 | 0.00 | 0.00 | 0.00 | 65 | 1014.7 |
| 20260506135541 | 76 | 187 | 4.3 | 9.6 | 0.00 | 0.00 | 0.00 | 66 | 1014.6 |
| 20260506135035 | 76 | 105 | 4.3 | 11.3 | 0.00 | 0.00 | 0.00 | 67 | 1014.7 |
| 20260506134535 | 76 | 155 | 4.3 | 11.3 | 0.00 | 0.00 | 0.00 | 67 | 1014.6 |
| 20260506134034 | 75 | 178 | 4.3 | 12.2 | 0.00 | 0.00 | 0.00 | 67 | 1014.5 |
| 20260506133535 | 75 | 111 | 4.3 | 12.2 | 0.00 | 0.00 | 0.00 | 68 | 1014.3 |
| 20260506133031 | 74 | 191 | 4.3 | 11.3 | 0.00 | 0.00 | 0.00 | 69 | 1014.2 |
| 20260506132531 | 74 | 182 | 5.2 | 11.3 | 0.00 | 0.00 | 0.00 | 70 | 1014.3 |
| 20260506132425 | 74 | 122 | 5.2 | 11.3 | 0.00 | 0.00 | 0.00 | 70 | 1014.2 |
| 20260506131531 | 74 | 153 | 4.3 | 11.3 | 0.00 | 0.00 | 0.00 | 72 | 1014.2 |
| 20260506131032 | 74 | 166 | 4.3 | 10.4 | 0.00 | 0.00 | 0.00 | 72 | 1014.2 |
| 20260506130532 | 73 | 117 | 4.3 | 10.4 | 0.00 | 0.00 | 0.00 | 73 | 1014.3 |
| 20260506130032 | 73 | 143 | 3.5 | 11.3 | 0.00 | 0.00 | 0.00 | 73 | 1014.4 |
| 20260506125531 | 73 | 175 | 3.5 | 11.3 | 0.00 | 0.00 | 0.00 | 75 | 1014.3 |
| 20260506125032 | 73 | 74 | 3.5 | 11.3 | 0.00 | 0.00 | 0.00 | 75 | 1014.3 |
| 20260506124533 | 72 | 131 | 4.3 | 11.3 | 0.00 | 0.00 | 0.00 | 75 | 1014.3 |
| 20260506124032 | 72 | 189 | 3.5 | 9.6 | 0.00 | 0.00 | 0.00 | 75 | 1014.2 |
| 20260506123533 | 71 | 138 | 4.3 | 8.7 | 0.00 | 0.00 | 0.00 | 76 | 1014.3 |
| 20260506123032 | 71 | 112 | 4.3 | 13.0 | 0.00 | 0.00 | 0.00 | 77 | 1014.1 |
| 20260506122709 | 71 | 140 | 4.3 | 13.0 | 0.00 | 0.00 | 0.00 | 77 | 1014.1 |
| 20260506121744 | 70 | 142 | 3.5 | 9.6 | 0.00 | 0.00 | 0.00 | 80 | 1014.0 |
| 20260506121526 | 70 | 142 | 3.5 | 9.6 | 0.00 | 0.00 | 0.00 | 80 | 1014.0 |
| 20260506121019 | 70 | 148 | 3.5 | 9.6 | 0.00 | 0.00 | 0.00 | 80 | 1014.2 |
| 20260506120844 | 69 | 125 | 3.5 | 10.4 | 0.00 | 0.00 | 0.00 | 82 | 1014.1 |
| 20260506120013 | 69 | 120 | 2.6 | 10.4 | 0.00 | 0.00 | 0.00 | 84 | 1014.1 |
| 20260506115515 | 68 | 130 | 1.7 | 7.0 | 0.00 | 0.00 | 0.00 | 85 | 1014.0 |
| 20260506115405 | 67 | 163 | 1.7 | 6.1 | 0.00 | 0.00 | 0.00 | 87 | 1014.1 |
| 20260506114514 | 67 | 158 | 0.9 | 5.2 | 0.00 | 0.00 | 0.00 | 88 | 1013.9 |
| 20260506114012 | 66 | 165 | 0.9 | 4.3 | 0.00 | 0.00 | 0.00 | 89 | 1013.8 |
| 20260506113509 | 66 | 117 | 0.9 | 4.3 | 0.00 | 0.00 | 0.00 | 91 | 1013.8 |
| 20260506113007 | 65 | 121 | 0.9 | 2.6 | 0.00 | 0.00 | 0.00 | 92 | 1013.8 |
| 20260506112507 | 65 | 142 | 1.7 | 4.3 | 0.00 | 0.00 | 0.00 | 93 | 1013.7 |
| 20260506112355 | 65 | 138 | 1.7 | 4.3 | 0.00 | 0.00 | 0.00 | 93 | 1013.6 |
| 20260506111859 | 64 | 163 | 0.9 | 3.5 | 0.00 | 0.00 | 0.00 | 93 | 1013.6 |
| 20260506111007 | 64 | 109 | 1.7 | 3.5 | 0.00 | 0.00 | 0.00 | 93 | 1013.5 |
| 20260506110652 | 64 | 132 | 0.9 | 2.6 | 0.00 | 0.00 | 0.00 | 92 | 1013.5 |
| 20260506105505 | 64 | 134 | 0.9 | 1.7 | 0.00 | 0.00 | 0.00 | 92 | 1013.6 |
| 20260506105004 | 64 | 153 | 0.9 | 1.7 | 0.00 | 0.00 | 0.00 | 91 | 1013.5 |
| 20260506104824 | 64 | 140 | 0.9 | 1.7 | 0.00 | 0.00 | 0.00 | 91 | 1013.4 |
| 20260506104003 | 64 | 140 | 0.9 | 1.7 | 0.00 | 0.00 | 0.00 | 91 | 1013.4 |
| 20260506103501 | 64 | 140 | 0.9 | 1.7 | 0.00 | 0.00 | 0.00 | 90 | 1013.4 |
| 20260506103000 | 64 | 140 | 0.9 | 2.6 | 0.00 | 0.00 | 0.00 | 90 | 1013.4 |
| 20260506102453 | 64 | 140 | 0.9 | 2.6 | 0.00 | 0.00 | 0.00 | 90 | 1013.4 |
| 20260506101954 | 64 | 163 | 0.9 | 1.7 | 0.00 | 0.00 | 0.00 | 89 | 1013.5 |
| 20260506101449 | 65 | 163 | 0.9 | 1.7 | 0.00 | 0.00 | 0.00 | 89 | 1013.4 |
| 20260506100948 | 65 | 163 | 0.9 | 1.7 | 0.00 | 0.00 | 0.00 | 89 | 1013.4 |
| 20260506100449 | 65 | 163 | 0.0 | 1.7 | 0.00 | 0.00 | 0.00 | 88 | 1013.5 |
| 20260506095951 | 65 | 163 | 0.0 | 2.6 | 0.00 | 0.00 | 0.00 | 88 | 1013.5 |
| 20260506095448 | 65 | 163 | 0.0 | 2.6 | 0.00 | 0.00 | 0.00 | 88 | 1013.5 |
| 20260506094948 | 65 | 163 | 0.9 | 2.6 | 0.00 | 0.00 | 0.00 | 88 | 1013.4 |
| 20260506094445 | 65 | 122 | 0.9 | 2.6 | 0.00 | 0.00 | 0.00 | 88 | 1013.4 |
| 20260506093944 | 65 | 148 | 0.0 | 2.6 | 0.00 | 0.00 | 0.00 | 87 | 1013.4 |
| 20260506093446 | 66 | 171 | 0.0 | 3.5 | 0.00 | 0.00 | 0.00 | 87 | 1013.3 |
| 20260506092946 | 66 | 155 | 0.9 | 4.3 | 0.00 | 0.00 | 0.00 | 87 | 1013.3 |
| 20260506092447 | 66 | 166 | 0.9 | 4.3 | 0.00 | 0.00 | 0.00 | 87 | 1013.3 |
| 20260506091945 | 66 | 119 | 0.9 | 4.3 | 0.00 | 0.00 | 0.00 | 87 | 1013.3 |
| 20260506091445 | 66 | 129 | 1.7 | 4.3 | 0.00 | 0.00 | 0.00 | 87 | 1013.3 |
| 20260506090943 | 66 | 172 | 1.7 | 4.3 | 0.00 | 0.00 | 0.00 | 88 | 1013.3 |
| 20260506090630 | 66 | 137 | 0.9 | 4.3 | 0.00 | 0.00 | 0.00 | 88 | 1013.2 |
| 20260506085438 | 66 | 130 | 1.7 | 5.2 | 0.00 | 0.00 | 0.00 | 89 | 1013.2 |
| 20260506084938 | 66 | 109 | 1.7 | 5.2 | 0.00 | 0.00 | 0.00 | 89 | 1013.1 |
| 20260506084439 | 66 | 113 | 1.7 | 4.3 | 0.00 | 0.00 | 0.00 | 89 | 1013.1 |
| 20260506083940 | 66 | 108 | 1.7 | 5.2 | 0.00 | 0.00 | 0.00 | 89 | 1013.0 |
| 20260506083441 | 66 | 121 | 1.7 | 5.2 | 0.00 | 0.00 | 0.00 | 89 | 1013.0 |
| 20260506082940 | 66 | 101 | 1.7 | 3.5 | 0.00 | 0.00 | 0.00 | 89 | 1013.1 |
| 20260506082439 | 66 | 140 | 1.7 | 3.5 | 0.00 | 0.00 | 0.00 | 89 | 1013.1 |
| 20260506081940 | 66 | 112 | 0.9 | 2.6 | 0.00 | 0.00 | 0.00 | 88 | 1013.2 |
| 20260506081437 | 66 | 140 | 0.9 | 2.6 | 0.00 | 0.00 | 0.00 | 88 | 1013.2 |
| 20260506080937 | 67 | 128 | 0.9 | 2.6 | 0.00 | 0.00 | 0.00 | 88 | 1013.1 |
| 20260506080437 | 67 | 157 | 0.9 | 2.6 | 0.00 | 0.00 | 0.00 | 87 | 1013.1 |
| 20260506073432 | 68 | 124 | 0.9 | 2.6 | 0.00 | 0.00 | 0.00 | 85 | 1013.2 |
| 20260506072930 | 68 | 126 | 0.9 | 3.5 | 0.00 | 0.00 | 0.00 | 85 | 1013.1 |
| 20260506072844 | 68 | 118 | 1.7 | 3.5 | 0.00 | 0.00 | 0.00 | 85 | 1013.1 |
| 20260506071929 | 68 | 98 | 1.7 | 3.5 | 0.00 | 0.00 | 0.00 | 85 | 1013.1 |
| 20260506071429 | 68 | 124 | 1.7 | 6.1 | 0.00 | 0.00 | 0.00 | 85 | 1013.2 |
| 20260506070929 | 68 | 132 | 1.7 | 6.1 | 0.00 | 0.00 | 0.00 | 85 | 1013.2 |
| 20260506070429 | 68 | 161 | 1.7 | 6.1 | 0.00 | 0.00 | 0.00 | 85 | 1013.2 |
| 20260506070314 | 68 | 121 | 2.6 | 6.1 | 0.00 | 0.00 | 0.00 | 85 | 1013.1 |
| 20260506061428 | 69 | 125 | 2.6 | 7.0 | 0.00 | 0.00 | 0.00 | 82 | 1013.6 |
| 20260506060928 | 69 | 120 | 2.6 | 7.0 | 0.00 | 0.00 | 0.00 | 82 | 1013.7 |
| 20260506060430 | 69 | 94 | 1.7 | 5.2 | 0.00 | 0.00 | 0.00 | 81 | 1013.8 |
| 20260506051401 | 70 | 130 | 2.6 | 7.0 | 0.00 | 0.00 | 0.00 | 75 | 1014.2 |
| 20260506051241 | 70 | 139 | 3.5 | 8.7 | 0.00 | 0.00 | 0.00 | 75 | 1014.1 |
| 20260506050400 | 70 | 144 | 3.5 | 8.7 | 0.00 | 0.00 | 0.00 | 74 | 1014.1 |
| 20260506044902 | 70 | 113 | 5.2 | 12.2 | 0.00 | 0.00 | 0.00 | 73 | 1014.0 |
| 20260506044402 | 70 | 114 | 5.2 | 12.2 | 0.00 | 0.00 | 0.00 | 72 | 1014.0 |
| 20260506043904 | 70 | 128 | 4.3 | 12.2 | 0.00 | 0.00 | 0.00 | 72 | 1014.0 |
| 20260506043811 | 70 | 103 | 3.5 | 8.7 | 0.00 | 0.00 | 0.00 | 72 | 1014.1 |
| 20260506042901 | 70 | 113 | 3.5 | 8.7 | 0.00 | 0.00 | 0.00 | 72 | 1014.1 |
| 20260506042822 | 70 | 122 | 3.5 | 12.2 | 0.00 | 0.00 | 0.00 | 73 | 1014.1 |
| 20260506041901 | 70 | 113 | 3.5 | 12.2 | 0.00 | 0.00 | 0.00 | 72 | 1014.0 |
| 20260506041402 | 70 | 105 | 4.3 | 9.6 | 0.00 | 0.00 | 0.00 | 72 | 1014.1 |
| 20260506041326 | 70 | 129 | 3.5 | 9.6 | 0.00 | 0.00 | 0.00 | 72 | 1014.1 |
| 20260506040816 | 70 | 93 | 3.5 | 10.4 | 0.00 | 0.00 | 0.00 | 72 | 1014.2 |
| 20260506035904 | 70 | 81 | 4.3 | 10.4 | 0.00 | 0.00 | 0.00 | 71 | 1014.3 |
| 20260506035404 | 70 | 133 | 5.2 | 11.3 | 0.00 | 0.00 | 0.00 | 71 | 1014.3 |
| 20260506035320 | 70 | 91 | 4.3 | 11.3 | 0.00 | 0.00 | 0.00 | 71 | 1014.3 |
| 20260506034404 | 70 | 102 | 4.3 | 10.4 | 0.00 | 0.00 | 0.00 | 70 | 1014.3 |
| 20260506033901 | 70 | 145 | 4.3 | 9.6 | 0.00 | 0.00 | 0.00 | 70 | 1014.3 |
| 20260506033402 | 70 | 136 | 4.3 | 9.6 | 0.00 | 0.00 | 0.00 | 70 | 1014.3 |
| 20260506032902 | 70 | 128 | 4.3 | 9.6 | 0.00 | 0.00 | 0.00 | 70 | 1014.4 |
| 20260506032802 | 69 | 88 | 3.5 | 9.6 | 0.00 | 0.00 | 0.00 | 70 | 1014.5 |
| 20260506031901 | 69 | 118 | 3.5 | 8.7 | 0.00 | 0.00 | 0.00 | 70 | 1014.5 |
| 20260506031401 | 69 | 137 | 4.3 | 9.6 | 0.00 | 0.00 | 0.00 | 69 | 1014.4 |
| 20260506030902 | 69 | 108 | 4.3 | 9.6 | 0.00 | 0.00 | 0.00 | 69 | 1014.2 |
| 20260506030402 | 69 | 122 | 4.3 | 9.6 | 0.00 | 0.00 | 0.00 | 69 | 1014.2 |
| 20260506025905 | 69 | 102 | 4.3 | 11.3 | 0.00 | 0.00 | 0.00 | 69 | 1014.3 |
| 20260506025405 | 69 | 113 | 4.3 | 11.3 | 0.00 | 0.00 | 0.00 | 69 | 1014.2 |
| 20260506024901 | 69 | 98 | 4.3 | 11.3 | 0.00 | 0.00 | 0.00 | 69 | 1014.2 |
| 20260506024400 | 69 | 120 | 4.3 | 11.3 | 0.00 | 0.00 | 0.00 | 69 | 1014.1 |
| 20260506023854 | 69 | 106 | 3.5 | 8.7 | 0.00 | 0.00 | 0.00 | 70 | 1014.1 |
| 20260506023347 | 69 | 122 | 3.5 | 7.8 | 0.00 | 0.00 | 0.00 | 69 | 1014.0 |
| 20260506022842 | 69 | 112 | 3.5 | 8.7 | 0.00 | 0.00 | 0.00 | 70 | 1014.1 |
| 20260506022334 | 69 | 121 | 3.5 | 8.7 | 0.00 | 0.00 | 0.00 | 69 | 1014.1 |
| 20260506021832 | 69 | 104 | 3.5 | 8.7 | 0.00 | 0.00 | 0.00 | 68 | 1014.1 |
| 20260506021709 | 69 | 106 | 2.6 | 8.7 | 0.00 | 0.00 | 0.00 | 68 | 1014.0 |
| 20260506020831 | 69 | 111 | 2.6 | 7.8 | 0.00 | 0.00 | 0.00 | 68 | 1013.9 |
| 20260506020332 | 69 | 113 | 3.5 | 9.6 | 0.00 | 0.00 | 0.00 | 68 | 1013.8 |
| 20260506015831 | 69 | 116 | 3.5 | 9.6 | 0.00 | 0.00 | 0.00 | 68 | 1013.9 |
| 20260506015706 | 69 | 121 | 2.6 | 9.6 | 0.00 | 0.00 | 0.00 | 68 | 1013.8 |
| 20260506014833 | 69 | 80 | 2.6 | 9.6 | 0.00 | 0.00 | 0.00 | 68 | 1013.8 |
| 20260506014336 | 69 | 116 | 3.5 | 9.6 | 0.00 | 0.00 | 0.00 | 68 | 1013.7 |
| 20260506013832 | 69 | 93 | 3.5 | 9.6 | 0.00 | 0.00 | 0.00 | 68 | 1013.9 |
| 20260506013331 | 69 | 121 | 3.5 | 7.8 | 0.00 | 0.00 | 0.00 | 68 | 1014.0 |
| 20260506012831 | 69 | 119 | 3.5 | 8.7 | 0.00 | 0.00 | 0.00 | 67 | 1014.0 |
| 20260506012330 | 69 | 126 | 3.5 | 8.7 | 0.00 | 0.00 | 0.00 | 68 | 1013.9 |
| 20260506011835 | 69 | 69 | 3.5 | 7.8 | 0.00 | 0.00 | 0.00 | 67 | 1013.9 |
| 20260506011748 | 69 | 121 | 3.5 | 7.8 | 0.00 | 0.00 | 0.00 | 67 | 1013.9 |
| 20260506010829 | 69 | 119 | 2.6 | 7.0 | 0.00 | 0.00 | 0.00 | 67 | 1013.9 |
| 20260506010330 | 69 | 130 | 2.6 | 6.1 | 0.00 | 0.00 | 0.00 | 67 | 1013.8 |
| 20260506005830 | 69 | 92 | 2.6 | 6.1 | 0.00 | 0.00 | 0.00 | 67 | 1013.8 |
| 20260506005330 | 69 | 96 | 2.6 | 6.1 | 0.00 | 0.00 | 0.00 | 67 | 1013.8 |
| 20260506005244 | 69 | 92 | 2.6 | 6.1 | 0.00 | 0.00 | 0.00 | 67 | 1013.6 |
| 20260506004758 | 69 | 125 | 2.6 | 6.1 | 0.00 | 0.00 | 0.00 | 67 | 1013.6 |
| 20260506003829 | 69 | 98 | 2.6 | 7.0 | 0.00 | 0.00 | 0.00 | 67 | 1013.6 |
| 20260506003329 | 69 | 89 | 2.6 | 7.0 | 0.00 | 0.00 | 0.00 | 67 | 1013.6 |
| 20260506002830 | 69 | 119 | 3.5 | 7.8 | 0.00 | 0.00 | 0.00 | 67 | 1013.5 |
| 20260506002331 | 69 | 83 | 3.5 | 7.8 | 0.00 | 0.00 | 0.00 | 67 | 1013.4 |
| 20260506001834 | 70 | 94 | 3.5 | 8.7 | 0.00 | 0.00 | 0.00 | 66 | 1013.3 |
| 20260506001330 | 70 | 123 | 3.5 | 8.7 | 0.00 | 0.00 | 0.00 | 65 | 1013.3 |
| 20260506001302 | 70 | 90 | 3.5 | 7.8 | 0.00 | 0.00 | 0.00 | 64 | 1013.3 |
| 20260506000333 | 70 | 118 | 3.5 | 10.4 | 0.00 | 0.00 | 0.00 | 64 | 1013.3 |
| 20260505235829 | 70 | 102 | 4.3 | 10.4 | 0.00 | 0.00 | 0.00 | 63 | 1013.3 |
| 20260505235329 | 71 | 95 | 5.2 | 10.4 | 0.00 | 0.00 | 0.00 | 63 | 1013.6 |
| 20260505234829 | 71 | 93 | 4.3 | 11.3 | 0.00 | 0.00 | 0.00 | 63 | 1013.6 |
| 20260505234736 | 71 | 136 | 3.5 | 11.3 | 0.00 | 0.00 | 0.00 | 63 | 1013.6 |
| 20260505233832 | 71 | 105 | 4.3 | 11.3 | 0.00 | 0.00 | 0.00 | 63 | 1013.5 |
| 20260505233329 | 71 | 102 | 5.2 | 12.2 | 0.00 | 0.00 | 0.00 | 62 | 1013.4 |
| 20260505232828 | 71 | 100 | 4.3 | 12.2 | 0.00 | 0.00 | 0.00 | 63 | 1013.5 |
| 20260505232329 | 72 | 255 | 3.5 | 11.3 | 0.00 | 0.00 | 0.00 | 62 | 1013.5 |
| 20260505231827 | 72 | 96 | 3.5 | 11.3 | 0.00 | 0.00 | 0.00 | 61 | 1013.6 |
| 20260505231421 | 72 | 118 | 6.1 | 13.9 | 0.00 | 0.00 | 0.00 | 60 | 1013.6 |
| 20260505231333 | 72 | 180 | 4.3 | 13.9 | 0.00 | 0.00 | 0.00 | 60 | 1013.6 |
| 20260505230330 | 72 | 134 | 7.0 | 13.9 | 0.00 | 0.00 | 0.00 | 59 | 1013.6 |
| 20260505225838 | 73 | 96 | 7.0 | 13.9 | 0.00 | 0.00 | 0.00 | 57 | 1013.5 |
| 20260505225337 | 73 | 101 | 5.2 | 13.0 | 0.00 | 0.00 | 0.00 | 58 | 1013.4 |
| 20260505224833 | 73 | 85 | 5.2 | 13.0 | 0.00 | 0.00 | 0.00 | 55 | 1013.3 |
| 20260505224804 | 73 | 109 | 5.2 | 13.0 | 0.00 | 0.00 | 0.00 | 56 | 1013.4 |
| 20260505223828 | 73 | 98 | 5.2 | 13.0 | 0.00 | 0.00 | 0.00 | 55 | 1013.4 |
| 20260505223332 | 73 | 63 | 6.1 | 12.2 | 0.00 | 0.00 | 0.00 | 54 | 1013.6 |
| 20260505222836 | 73 | 99 | 5.2 | 12.2 | 0.00 | 0.00 | 0.00 | 53 | 1013.6 |
| 20260505222327 | 74 | 105 | 6.1 | 13.9 | 0.00 | 0.00 | 0.00 | 53 | 1013.6 |
| 20260505221832 | 74 | 82 | 7.0 | 13.9 | 0.00 | 0.00 | 0.00 | 54 | 1013.6 |
| 20260505221336 | 74 | 89 | 7.0 | 13.0 | 0.00 | 0.00 | 0.00 | 55 | 1013.5 |
| 20260505220824 | 74 | 69 | 7.8 | 15.6 | 0.00 | 0.00 | 0.00 | 54 | 1013.5 |
| 20260505220332 | 74 | 101 | 7.0 | 15.6 | 0.00 | 0.00 | 0.00 | 55 | 1013.7 |
| 20260505215825 | 74 | 140 | 6.1 | 14.8 | 0.00 | 0.00 | 0.00 | 56 | 1013.7 |
| 20260505215749 | 74 | 112 | 7.0 | 14.8 | 0.00 | 0.00 | 0.00 | 56 | 1013.6 |
| 20260505215235 | 74 | 138 | 7.0 | 14.8 | 0.00 | 0.00 | 0.00 | 56 | 1013.6 |
| 20260505214320 | 74 | 105 | 7.0 | 14.8 | 0.00 | 0.00 | 0.00 | 58 | 1013.6 |
| 20260505213821 | 74 | 124 | 7.0 | 14.8 | 0.00 | 0.00 | 0.00 | 56 | 1013.7 |
| 20260505213317 | 75 | 102 | 5.2 | 14.8 | 0.00 | 0.00 | 0.00 | 56 | 1013.6 |
| 20260505212819 | 75 | 120 | 5.2 | 12.2 | 0.00 | 0.00 | 0.00 | 59 | 1013.7 |
| 20260505212318 | 74 | 144 | 6.1 | 12.2 | 0.00 | 0.00 | 0.00 | 58 | 1013.7 |
| 20260505211821 | 74 | 88 | 6.1 | 11.3 | 0.00 | 0.00 | 0.00 | 57 | 1013.8 |
| 20260505211319 | 74 | 84 | 6.1 | 13.9 | 0.00 | 0.00 | 0.00 | 57 | 1013.8 |
| 20260505210818 | 74 | 75 | 7.8 | 13.9 | 0.00 | 0.00 | 0.00 | 57 | 1013.7 |
| 20260505210316 | 74 | 98 | 7.8 | 15.6 | 0.00 | 0.00 | 0.00 | 56 | 1013.9 |
| 20260505205816 | 75 | 92 | 6.1 | 15.6 | 0.00 | 0.00 | 0.00 | 56 | 1013.9 |
| 20260505205316 | 75 | 103 | 5.2 | 15.6 | 0.00 | 0.00 | 0.00 | 56 | 1013.8 |
| 20260505205157 | 75 | 85 | 7.8 | 15.6 | 0.00 | 0.00 | 0.00 | 57 | 1013.8 |
| 20260505204316 | 75 | 79 | 7.0 | 15.6 | 0.00 | 0.00 | 0.00 | 56 | 1013.9 |
| 20260505203816 | 75 | 94 | 6.1 | 15.6 | 0.00 | 0.00 | 0.00 | 56 | 1013.8 |
| 20260505203321 | 75 | 102 | 7.0 | 15.6 | 0.00 | 0.00 | 0.00 | 57 | 1013.9 |
| 20260505203315 | 76 | 128 | 6.1 | 15.6 | 0.00 | 0.00 | 0.00 | 55 | 1013.9 |
| 20260505202316 | 76 | 98 | 7.0 | 14.8 | 0.00 | 0.00 | 0.00 | 56 | 1014.0 |
| 20260505201828 | 76 | 109 | 7.0 | 14.8 | 0.00 | 0.00 | 0.00 | 56 | 1014.0 |